Helicity
5 17 32 33 50 64 89 70 87 55 46 19 71 91 83 72 62 62 72 49 77 74 71 73 93 91 91 93 82 68 93 108 111 96 86 98 109 117 115 94 87 88 92 95
19 13 12 32 31 48 52 57 120 90 105 58 108 94 91 77 58 40 49 40 61 82 85 64 49 63 82 100 86 65 55 72 82 83 71 66 72 71 75 81 95 100 89 75
17 13 22 39 13 34 32 27 42 70 40 66 80 49 68 59 24 28 67 85 84 81 80 75 60 44 55 88 112 79 55 53 64 62 68 75 64 62 58 65 79 87 90 91
24 38 43 23 28 10 23 15 19 44 28 25 25 35 45 22 32 25 31 48 58 48 62 70 72 82 79 89 106 110 106 85 68 63 64 76 64 68 91 95 84 96 99 94
35 29 27 37 32 34 38 34 5 26 17 5 18 45 43 53 49 45 43 16 3 25 41 51 55 62 71 86 110 116 116 105 102 88 73 64 48 68 91 97 103 111 116 106
43 42 44 26 14 20 36 52 -26 -8 29 54 46 68 28 46 44 50 67 44 38 43 34 43 46 50 54 64 79 90 97 104 103 103 74 64 63 69 74 87 103 111 111 113
21 22 30 23 23 22 66 8 59 67 108 98 63 29 37 38 31 65 51 44 44 51 41 39 41 41 43 51 63 67 75 70 72 90 104 87 73 69 72 74 78 86 96 115
18 28 44 35 32 45 13 32 106 130 104 90 76 62 41 26 30 34 37 41 45 45 42 45 50 46 44 44 48 51 52 58 63 65 79 86 105 114 106 91 76 93 99 97
1 9 26 35 47 44 60 62 72 97 105 99 78 59 51 37 24 16 33 44 47 47 55 60 55 45 42 50 50 44 44 47 49 59 71 74 91 97 127 138 125 111 111 113
-1 15 14 24 31 44 66 72 111 132 130 124 90 80 58 35 15 22 35 48 49 51 48 59 59 61 50 48 48 43 45 50 55 55 63 77 91 93 113 140 154 144 141 135
27 14 15 30 43 48 85 127 152 162 144 117 115 79 69 52 38 33 38 52 51 49 54 63 59 60 61 52 44 38 41 48 54 58 70 77 81 97 105 119 135 151 160 163
62 82 102 85 69 99 116 129 127 146 139 132 126 77 89 50 52 65 56 66 58 58 54 60 63 67 74 69 48 33 41 43 52 56 76 79 84 89 89 86 104 95 87 123
107 136 151 86 105 135 132 126 146 138 124 107 105 104 106 75 74 61 68 64 64 58 65 67 68 75 90 79 63 51 60 62 69 68 84 93 89 83 99 114 93 141 98 83
98 114 101 108 101 75 125 122 126 127 113 103 93 103 102 96 90 83 71 69 72 69 72 74 75 84 99 93 61 58 61 45 60 67 69 76 88 93 101 111 135 119 147 118
53 150 150 117 108 122 149 151 128 101 101 88 95 88 108 88 86 78 73 72 71 69 68 73 73 89 114 106 70 72 66 73 71 71 70 61 71 84 100 104 96 108 138 145
95 110 101 124 91 106 127 126 126 105 108 103 96 96 87 96 85 80 78 80 88 77 80 81 74 97 103 89 90 66 67 38 43 43 53 58 70 76 102 106 108 88 114 116
87 79 94 101 111 117 126 116 119 117 115 107 99 96 101 97 88 86 79 78 77 68 71 76 69 91 94 61 67 63 58 76 62 53 57 63 77 79 84 99 107 112 108 107
127 119 114 109 110 114 107 114 117 112 118 108 108 106 99 97 91 84 80 82 83 74 74 71 73 92 56 55 68 52 49 45 51 54 62 76 92 85 78 81 123 139 108 105
92 98 104 106 106 109 115 111 112 109 111 112 109 102 95 90 84 77 77 80 77 74 94 94 89 89 71 94 124 54 20 28 39 46 56 71 74 77 82 88 109 119 119 126
96 111 115 116 116 116 109 100 106 102 104 108 99 96 94 93 84 76 74 68 76 83 78 95 99 74 81 116 100 71 56 46 46 52 60 65 79 80 92 68 91 114 136 175
110 110 112 114 113 109 108 110 103 97 96 98 93 91 91 86 77 73 71 71 80 67 69 63 80 88 115 143 100 75 69 58 57 58 64 77 94 88 91 90 90 99 109 133
130 128 120 116 112 97 100 107 107 91 83 84 85 79 73 69 69 68 60 64 73 49 71 76 73 90 114 130 78 42 45 42 36 39 53 65 70 69 72 77 93 101 107 109
133 122 114 115 109 93 87 93 90 74 66 68 68 68 69 71 67 66 73 64 58 47 73 56 62 97 149 93 45 27 32 25 23 30 39 55 67 64 72 70 67 78 97 107
114 110 119 127 127 109 91 98 86 72 71 64 62 67 65 66 65 66 55 36 52 61 62 47 60 107 94 14 -4 -3 23 49 59 73 53 70 65 69 70 64 63 70 76 72
128 129 130 95 79 77 71 73 85 87 82 80 75 69 57 56 59 69 70 57 35 60 51 57 70 89 40 44 49 43 42 51 70 57 64 68 71 76 72 70 64 63 65 72
117 117 101 70 87 88 76 94 44 46 51 54 61 70 73 64 59 40 52 39 45 50 49 44 48 51 51 52 42 45 38 44 54 61 66 59 71 77 73 71 69 64 61 65
121 80 84 76 92 76 65 38 47 46 38 49 75 50 29 30 33 50 58 56 51 42 35 37 45 50 42 31 34 31 36 41 51 53 48 70 75 78 66 58 58 60 58 62
Wind_Speed
36 38 35 36 37 38 39 39 53 47 39 33 32 33 38 42 44 44 44 43 43 47 49 49 50 50 50 53 52 51 53 55 57 59 59 61 62 61 61 61 59 57 57 56
36 34 32 34 33 31 32 30 30 28 38 31 32 36 43 48 49 48 46 42 46 51 55 56 56 57 57 58 58 56 56 58 59 61 62 65 66 66 66 67 66 65 64 62
36 34 38 41 35 30 31 32 27 35 35 23 30 36 44 48 46 43 43 47 53 58 58 59 60 61 63 63 62 60 60 59 60 62 66 67 67 68 70 70 68 70 71 70
35 38 36 33 33 28 30 28 30 28 17 18 27 34 37 39 40 43 49 54 56 56 57 55 58 62 64 64 63 62 62 63 62 63 65 66 66 68 69 68 69 69 71 70
36 35 40 37 31 30 32 36 25 24 21 25 29 36 47 44 47 53 56 57 56 56 55 56 58 59 61 62 64 65 65 66 67 68 70 68 67 68 69 69 71 71 69 70
35 37 36 34 30 27 32 39 22 21 24 28 35 56 61 48 55 58 59 59 61 59 57 58 59 60 61 61 61 64 67 70 70 71 71 71 71 70 67 67 70 69 72 70
35 36 36 34 27 32 41 44 29 26 26 31 47 54 52 58 62 61 62 63 59 58 60 60 60 61 61 61 63 62 65 68 71 72 74 73 73 71 71 70 69 70 72 71
35 36 36 33 33 40 42 40 34 32 35 43 50 56 61 62 62 64 65 63 60 62 61 59 59 59 63 63 62 64 67 67 69 71 73 74 77 75 73 73 75 75 73 73
35 36 38 39 42 43 39 40 39 42 45 51 58 62 63 65 65 66 64 62 61 61 63 63 60 60 63 64 65 65 66 68 69 71 71 71 74 77 77 72 75 77 76 75
45 37 45 52 42 39 39 44 43 44 47 51 61 61 64 67 68 68 65 64 61 61 63 66 63 63 64 65 64 66 68 68 68 68 70 68 68 67 69 68 71 73 75 76
38 42 60 38 42 51 45 45 44 45 49 53 56 62 62 65 65 66 65 62 61 62 65 66 65 66 64 63 64 67 67 67 68 68 69 70 69 68 69 66 64 67 69 71
38 33 35 16 50 44 44 38 36 40 47 49 51 60 60 65 64 63 62 60 61 63 63 65 65 67 66 64 63 66 68 68 69 71 70 70 71 73 71 73 70 67 65 59
42 42 37 27 44 45 46 43 40 40 44 51 52 52 56 62 61 58 57 59 62 63 64 65 66 66 66 65 64 66 69 71 72 72 72 72 72 71 74 70 69 71 64 60
38 48 58 53 56 58 43 43 45 45 47 48 50 51 52 53 54 55 59 61 62 63 63 64 65 66 65 65 66 67 69 72 72 70 69 69 68 67 67 69 69 67 64 60
58 47 46 51 56 51 48 49 51 56 55 55 50 49 48 50 52 54 56 58 59 60 62 63 64 64 64 65 63 64 67 67 67 68 68 68 66 65 65 65 63 64 60 61
64 63 61 58 62 60 55 56 59 61 58 55 51 49 48 49 49 54 56 56 58 61 63 64 63 61 62 64 66 65 64 65 68 68 69 67 67 65 67 63 61 60 57 57
68 73 71 69 67 65 62 60 59 58 56 53 51 50 48 50 54 57 57 56 55 55 59 62 60 59 62 62 64 60 59 64 66 66 66 64 62 62 60 57 58 52 53 52
63 62 63 64 67 67 66 62 60 58 56 53 50 49 52 55 56 57 58 57 55 58 59 57 54 56 55 61 58 54 58 61 63 64 63 62 60 56 57 56 50 48 51 51
71 70 69 68 66 66 65 63 61 58 55 51 51 54 54 53 54 56 55 56 59 61 60 55 57 56 59 57 57 48 56 60 61 61 61 61 60 57 50 49 48 47 47 48
77 73 70 69 67 65 66 63 59 57 54 53 53 54 55 53 53 54 54 58 56 55 53 54 55 54 53 55 53 50 53 55 58 59 59 58 57 53 50 46 42 40 41 39
82 78 77 74 70 66 63 61 59 57 55 52 52 54 53 52 52 51 55 56 51 48 50 51 53 53 51 52 43 47 50 53 55 57 58 57 53 50 49 47 43 40 38 37
84 79 77 75 72 69 64 60 56 55 53 51 50 48 50 52 51 50 49 50 51 48 47 47 48 51 52 35 40 48 52 54 56 57 57 56 54 52 50 47 43 40 37 35
81 77 73 71 70 68 65 60 54 50 48 47 47 48 48 47 45 48 52 45 44 43 44 46 47 49 36 42 47 51 55 58 59 58 57 55 54 52 49 46 43 41 38 36
79 74 69 65 63 64 65 63 57 51 46 46 45 46 45 46 46 41 40 45 48 45 46 46 46 45 38 44 48 51 52 54 54 53 53 53 52 50 48 46 43 41 40 37
73 67 64 64 64 62 63 61 57 50 46 45 45 44 42 41 40 42 39 39 43 47 45 44 49 51 50 50 49 48 50 52 51 50 51 49 49 49 47 44 42 41 40 38
70 66 62 63 57 57 57 58 57 52 46 46 44 42 43 41 40 42 40 39 35 41 44 44 43 43 47 48 46 49 51 52 51 49 50 50 48 47 45 42 42 42 39 38
69 67 62 57 51 45 34 57 56 51 50 48 35 47 41 40 41 40 39 38 38 41 42 41 41 45 48 49 49 51 51 50 50 48 48 47 46 44 43 42 41 40 38 37
Wind_Direction
308 297 296 292 289 289 286 281 271 269 266 261 267 274 281 288 292 295 294 294 299 299 299 300 300 298 296 291 288 287 285 283 282 281 281 281 280 281 280 279 280 281 282 282
309 306 306 299 298 300 295 293 293 281 273 272 278 282 286 291 292 292 297 298 299 300 299 298 297 296 295 293 289 286 286 285 285 284 282 281 280 280 280 280 279 278 278 279
313 305 302 293 293 301 303 298 295 284 284 279 283 287 292 296 298 298 301 301 300 301 301 299 298 296 293 291 291 287 285 286 287 286 284 283 282 281 279 279 279 277 276 276
312 305 304 304 308 309 313 308 303 304 302 296 297 299 305 310 309 305 303 303 304 306 304 304 301 298 295 293 291 289 287 286 288 288 287 286 284 283 281 280 279 278 276 276
314 308 300 302 311 314 310 306 316 306 302 302 307 307 302 310 309 306 306 306 306 306 307 306 305 304 301 296 292 289 287 287 288 288 287 287 286 285 284 282 280 279 279 277
315 312 306 308 317 338 339 306 331 322 312 311 308 297 300 309 308 308 309 307 304 304 305 305 304 303 301 299 297 293 290 288 288 288 287 286 285 286 285 284 282 280 278 278
312 311 309 317 334 331 311 310 328 325 318 313 305 307 311 310 308 309 308 305 305 304 303 303 304 302 301 299 297 296 295 292 290 288 287 287 286 285 284 284 283 282 280 279
315 315 314 329 328 318 323 331 328 324 319 314 313 312 310 310 311 309 306 305 303 301 301 304 305 304 300 299 300 299 297 295 293 292 290 288 285 284 284 283 281 280 280 279
333 325 331 332 326 329 334 330 326 320 318 315 312 310 311 311 310 309 307 304 303 302 301 301 304 304 300 300 301 301 300 298 297 296 293 292 289 286 283 282 280 279 278 278
327 346 333 325 338 342 338 329 327 323 320 318 312 314 313 311 309 307 306 303 303 302 300 299 301 302 301 301 302 302 301 301 301 300 298 296 293 291 287 284 280 278 276 275
3 352 327 351 343 336 336 332 328 324 321 318 316 314 315 314 313 309 304 303 303 301 300 299 301 301 302 303 303 301 302 302 302 302 300 298 295 292 289 285 282 280 277 275
12 3 355 322 341 340 334 329 327 325 323 322 319 316 316 313 312 310 306 305 304 303 303 302 302 302 301 304 305 302 301 302 302 301 301 299 297 294 290 286 284 279 277 277
5 356 344 323 337 337 335 332 331 329 326 323 322 320 318 314 312 311 309 307 304 304 303 303 303 303 303 305 305 302 302 302 302 301 300 298 296 294 291 289 285 280 275 276
358 352 344 345 338 336 337 335 332 330 327 325 323 322 320 317 316 312 308 307 306 305 305 305 304 303 305 307 304 303 302 302 301 301 301 300 298 295 292 289 285 281 277 273
355 350 342 339 337 336 335 332 328 325 325 324 323 322 321 318 316 314 313 311 309 308 306 306 304 303 308 309 308 306 306 305 303 302 301 301 299 296 294 291 286 281 277 274
346 344 342 340 336 334 331 328 324 323 323 322 321 320 318 318 317 316 315 313 311 309 308 307 305 304 308 308 307 307 307 306 305 303 302 300 298 295 294 289 285 280 275 273
344 342 339 335 334 332 328 327 324 322 322 321 320 319 318 317 315 314 313 313 312 311 311 309 306 307 307 309 308 307 309 309 308 306 304 302 300 296 297 293 286 279 274 273
343 338 336 333 330 328 327 326 324 322 320 319 319 318 316 314 312 313 313 313 312 311 310 311 311 309 311 310 307 309 310 311 311 308 306 302 301 299 298 294 289 281 277 274
344 340 338 335 332 329 327 325 323 322 320 319 317 315 315 314 313 313 313 312 310 309 308 311 309 309 308 309 308 313 312 311 310 309 306 302 300 300 299 299 292 285 278 273
342 341 338 335 334 331 327 326 323 321 319 318 316 315 313 314 314 314 313 310 311 311 313 311 311 310 309 308 307 313 313 313 313 311 310 308 304 300 298 298 298 292 282 275
342 341 339 337 334 332 329 327 325 321 319 318 315 314 314 315 315 315 313 312 315 316 314 314 312 310 306 310 313 314 314 312 313 314 312 309 306 305 302 298 295 292 285 276
344 343 341 339 337 334 333 330 327 323 320 318 317 316 315 315 316 316 316 315 316 316 316 316 316 311 307 319 314 312 310 310 309 310 311 309 305 302 301 298 294 290 286 279
347 346 345 344 342 339 336 335 332 330 327 323 319 317 317 318 320 318 316 323 321 320 320 318 315 311 318 314 311 311 308 305 304 305 306 308 306 301 299 296 291 288 283 278
354 354 354 353 352 348 341 338 338 337 334 328 323 322 321 320 321 325 326 323 319 319 321 318 314 314 323 316 314 313 311 308 305 303 303 305 306 303 299 293 289 285 280 276
2 2 2 2 360 357 350 345 343 344 342 337 330 327 328 328 327 327 330 330 324 321 323 320 311 308 310 310 311 312 312 309 305 306 304 303 302 302 297 291 285 282 277 273
9 10 10 9 10 8 3 357 351 351 351 343 338 336 332 332 333 328 330 331 334 328 324 322 318 317 313 310 312 310 308 307 305 304 301 299 298 297 295 289 282 277 274 271
18 18 20 21 23 24 28 7 2 4 356 349 358 336 343 341 337 337 338 338 335 331 327 326 322 313 310 310 310 308 307 305 304 301 301 298 295 294 290 283 277 275 270 268